Time,TemperatureF,DewpointF,PressureIn,WindDirection,WindDirectionDegrees,WindSpeedMPH,WindSpeedGustMPH,Humidity,HourlyPrecipIn,Conditions,Clouds,dailyrainin,SoftwareType,DateUTC
2013-01-09 00:00:00,41.5,35.2,30.36,SSW,195,0.0,4.0,78,0.00,,,0.00,Wunderground v.1.15,2013-01-09 05:00:00,
2013-01-09 00:10:00,41.4,35.1,30.36,SSW,195,0.0,4.0,78,0.00,,,0.00,Wunderground v.1.15,2013-01-09 05:10:00,
2013-01-09 00:15:00,41.2,35.2,30.36,SSW,195,1.0,4.0,79,0.00,,,0.00,Wunderground v.1.15,2013-01-09 05:15:00,
2013-01-09 00:20:00,41.1,35.1,30.36,SSW,195,1.0,1.0,79,0.00,,,0.00,Wunderground v.1.15,2013-01-09 05:20:00,
2013-01-09 00:25:00,40.9,34.9,30.36,SSW,195,1.0,4.0,79,0.00,,,0.00,Wunderground v.1.15,2013-01-09 05:25:00,
2013-01-09 00:30:00,40.8,34.8,30.37,SSW,195,1.0,1.0,79,0.00,,,0.00,Wunderground v.1.15,2013-01-09 05:30:00,
2013-01-09 00:35:00,40.4,34.7,30.37,SSW,195,0.0,4.0,80,0.00,,,0.00,Wunderground v.1.15,2013-01-09 05:35:00,
2013-01-09 00:40:00,40.4,34.7,30.37,SSW,195,0.0,4.0,80,0.00,,,0.00,Wunderground v.1.15,2013-01-09 05:40:00,
2013-01-09 00:45:00,40.6,35.2,30.37,SSW,195,1.0,4.0,81,0.00,,,0.00,Wunderground v.1.15,2013-01-09 05:45:00,
2013-01-09 00:50:00,40.7,35.0,30.37,SSW,195,0.0,4.0,80,0.00,,,0.00,Wunderground v.1.15,2013-01-09 05:50:00,
2013-01-09 01:00:00,40.5,34.8,30.37,SSW,195,0.0,4.0,80,0.00,,,0.00,Wunderground v.1.15,2013-01-09 06:00:00,
2013-01-09 01:05:00,40.4,35.0,30.36,SSW,195,0.0,4.0,81,0.00,,,0.00,Wunderground v.1.15,2013-01-09 06:05:00,
2013-01-09 01:10:00,40.3,34.6,30.36,SSW,195,0.0,4.0,80,0.00,,,0.00,Wunderground v.1.15,2013-01-09 06:10:00,
2013-01-09 01:15:00,40.1,34.7,30.36,SSW,195,0.0,4.0,81,0.00,,,0.00,Wunderground v.1.15,2013-01-09 06:15:00,
2013-01-09 01:20:00,39.8,34.4,30.35,SSW,195,0.0,4.0,81,0.00,,,0.00,Wunderground v.1.15,2013-01-09 06:20:00,
2013-01-09 01:30:00,39.5,34.5,30.35,SSW,195,0.0,4.0,82,0.00,,,0.00,Wunderground v.1.15,2013-01-09 06:30:00,
2013-01-09 01:35:00,39.3,34.3,30.35,SSW,195,0.0,4.0,82,0.00,,,0.00,Wunderground v.1.15,2013-01-09 06:35:00,
2013-01-09 01:40:00,39.0,34.0,30.35,SSW,195,0.0,4.0,82,0.00,,,0.00,Wunderground v.1.15,2013-01-09 06:40:00,
2013-01-09 01:50:00,38.5,34.1,30.35,SSW,195,0.0,4.0,84,0.00,,,0.00,Wunderground v.1.15,2013-01-09 06:50:00,
2013-01-09 01:55:00,38.5,34.1,30.35,SSW,195,0.0,4.0,84,0.00,,,0.00,Wunderground v.1.15,2013-01-09 06:55:00,
2013-01-09 02:00:00,38.4,34.3,30.35,SSW,195,0.0,4.0,85,0.00,,,0.00,Wunderground v.1.15,2013-01-09 07:00:00,
2013-01-09 02:05:00,38.3,34.2,30.35,SSW,195,0.0,4.0,85,0.00,,,0.00,Wunderground v.1.15,2013-01-09 07:05:00,
2013-01-09 02:10:00,38.1,33.7,30.35,SSW,195,0.0,4.0,84,0.00,,,0.00,Wunderground v.1.15,2013-01-09 07:10:00,
2013-01-09 02:20:00,37.7,33.9,30.35,SSW,195,0.0,4.0,86,0.00,,,0.00,Wunderground v.1.15,2013-01-09 07:20:00,
2013-01-09 02:25:00,37.5,33.7,30.34,SSW,195,0.0,4.0,86,0.00,,,0.00,Wunderground v.1.15,2013-01-09 07:25:00,
2013-01-09 02:30:00,37.3,33.5,30.35,SSW,195,0.0,4.0,86,0.00,,,0.00,Wunderground v.1.15,2013-01-09 07:30:00,
2013-01-09 02:35:00,37.0,33.2,30.35,SSW,195,0.0,4.0,86,0.00,,,0.00,Wunderground v.1.15,2013-01-09 07:35:00,
2013-01-09 02:40:00,36.7,33.2,30.35,SSW,195,0.0,4.0,87,0.00,,,0.00,Wunderground v.1.15,2013-01-09 07:40:00,
2013-01-09 02:50:00,36.1,33.2,30.35,SSW,195,0.0,4.0,89,0.00,,,0.00,Wunderground v.1.15,2013-01-09 07:50:00,
2013-01-09 02:55:00,36.3,33.4,30.35,SSW,195,0.0,4.0,89,0.00,,,0.00,Wunderground v.1.15,2013-01-09 07:55:00,
2013-01-09 03:00:00,36.7,33.8,30.36,SSW,195,0.0,4.0,89,0.00,,,0.00,Wunderground v.1.15,2013-01-09 08:00:00,
2013-01-09 03:05:00,37.0,34.1,30.36,SSW,195,0.0,4.0,89,0.00,,,0.00,Wunderground v.1.15,2013-01-09 08:05:00,
2013-01-09 03:10:00,37.1,33.9,30.36,SSW,195,0.0,4.0,88,0.00,,,0.00,Wunderground v.1.15,2013-01-09 08:10:00,
2013-01-09 03:20:00,37.5,34.3,30.36,SSW,195,1.0,4.0,88,0.00,,,0.00,Wunderground v.1.15,2013-01-09 08:20:00,
2013-01-09 03:25:00,37.7,34.2,30.36,SSW,195,1.0,4.0,87,0.00,,,0.00,Wunderground v.1.15,2013-01-09 08:25:00,
2013-01-09 03:30:00,37.8,34.3,30.36,SSW,195,1.0,4.0,87,0.00,,,0.00,Wunderground v.1.15,2013-01-09 08:30:00,
2013-01-09 03:35:00,37.8,34.3,30.35,SSW,195,1.0,4.0,87,0.00,,,0.00,Wunderground v.1.15,2013-01-09 08:35:00,
2013-01-09 03:40:00,37.7,33.9,30.35,SSW,195,1.0,1.0,86,0.00,,,0.00,Wunderground v.1.15,2013-01-09 08:40:00,
2013-01-09 03:50:00,37.7,34.2,30.35,SSW,195,0.0,4.0,87,0.00,,,0.00,Wunderground v.1.15,2013-01-09 08:50:00,
2013-01-09 03:55:00,37.5,34.0,30.35,SSW,195,0.0,4.0,87,0.00,,,0.00,Wunderground v.1.15,2013-01-09 08:55:00,
2013-01-09 04:00:00,37.5,34.0,30.35,SSW,195,0.0,4.0,87,0.00,,,0.00,Wunderground v.1.15,2013-01-09 09:00:00,
2013-01-09 04:05:00,37.1,33.3,30.35,SSW,195,0.0,4.0,86,0.00,,,0.00,Wunderground v.1.15,2013-01-09 09:05:00,
2013-01-09 04:15:00,36.9,33.7,30.34,SSW,195,0.0,4.0,88,0.00,,,0.00,Wunderground v.1.15,2013-01-09 09:15:00,
2013-01-09 04:20:00,36.9,34.0,30.34,SSW,195,0.0,4.0,89,0.00,,,0.00,Wunderground v.1.15,2013-01-09 09:20:00,
2013-01-09 04:25:00,37.0,34.1,30.34,SSW,195,0.0,4.0,89,0.00,,,0.00,Wunderground v.1.15,2013-01-09 09:25:00,
2013-01-09 04:30:00,37.3,34.4,30.34,SSW,195,0.0,4.0,89,0.00,,,0.00,Wunderground v.1.15,2013-01-09 09:30:00,
2013-01-09 04:40:00,37.4,34.2,30.34,SSW,195,0.0,4.0,88,0.00,,,0.00,Wunderground v.1.15,2013-01-09 09:40:00,
2013-01-09 04:45:00,37.3,34.1,30.34,SSW,195,0.0,4.0,88,0.00,,,0.00,Wunderground v.1.15,2013-01-09 09:45:00,
2013-01-09 04:50:00,37.2,34.0,30.34,SSW,195,0.0,4.0,88,0.00,,,0.00,Wunderground v.1.15,2013-01-09 09:50:00,
2013-01-09 04:55:00,37.1,33.9,30.33,SSW,195,0.0,4.0,88,0.00,,,0.00,Wunderground v.1.15,2013-01-09 09:55:00,
2013-01-09 05:00:00,37.1,34.2,30.34,SSW,195,0.0,4.0,89,0.00,,,0.00,Wunderground v.1.15,2013-01-09 10:00:00,
2013-01-09 05:10:00,37.0,33.8,30.33,SSW,195,0.0,4.0,88,0.00,,,0.00,Wunderground v.1.15,2013-01-09 10:10:00,
2013-01-09 05:15:00,36.9,33.7,30.34,SSW,195,0.0,4.0,88,0.00,,,0.00,Wunderground v.1.15,2013-01-09 10:15:00,
2013-01-09 05:20:00,36.3,33.1,30.34,SSW,195,0.0,4.0,88,0.00,,,0.00,Wunderground v.1.15,2013-01-09 10:20:00,
2013-01-09 05:25:00,35.9,33.0,30.34,SSW,195,0.0,4.0,89,0.00,,,0.00,Wunderground v.1.15,2013-01-09 10:25:00,
2013-01-09 05:30:00,35.6,33.0,30.33,SSW,195,0.0,4.0,90,0.00,,,0.00,Wunderground v.1.15,2013-01-09 10:30:00,
2013-01-09 05:40:00,35.6,33.2,30.33,SSW,195,0.0,4.0,91,0.00,,,0.00,Wunderground v.1.15,2013-01-09 10:40:00,
2013-01-09 05:45:00,35.7,33.3,30.33,SSW,195,0.0,4.0,91,0.00,,,0.00,Wunderground v.1.15,2013-01-09 10:45:00,
2013-01-09 05:50:00,35.7,33.3,30.34,SSW,195,0.0,4.0,91,0.00,,,0.00,Wunderground v.1.15,2013-01-09 10:50:00,
2013-01-09 06:00:00,35.9,33.5,30.33,SSW,195,0.0,4.0,91,0.00,,,0.00,Wunderground v.1.15,2013-01-09 11:00:00,
2013-01-09 06:05:00,36.1,33.7,30.34,SSW,195,0.0,4.0,91,0.00,,,0.00,Wunderground v.1.15,2013-01-09 11:05:00,
2013-01-09 06:10:00,36.2,33.8,30.33,SSW,195,0.0,4.0,91,0.00,,,0.00,Wunderground v.1.15,2013-01-09 11:10:00,
2013-01-09 06:15:00,36.4,34.0,30.33,SSW,195,0.0,4.0,91,0.00,,,0.00,Wunderground v.1.15,2013-01-09 11:15:00,
2013-01-09 06:20:00,36.5,33.8,30.34,SSW,195,0.0,4.0,90,0.00,,,0.00,Wunderground v.1.15,2013-01-09 11:20:00,
2013-01-09 06:30:00,36.6,33.7,30.33,SSW,195,0.0,4.0,89,0.00,,,0.00,Wunderground v.1.15,2013-01-09 11:30:00,
2013-01-09 06:35:00,36.6,33.7,30.34,SSW,195,0.0,4.0,89,0.00,,,0.00,Wunderground v.1.15,2013-01-09 11:35:00,
2013-01-09 06:40:00,36.6,33.9,30.33,SSW,195,0.0,4.0,90,0.00,,,0.00,Wunderground v.1.15,2013-01-09 11:40:00,
2013-01-09 06:45:00,36.7,34.0,30.33,SSW,195,0.0,4.0,90,0.00,,,0.00,Wunderground v.1.15,2013-01-09 11:45:00,
2013-01-09 06:50:00,36.6,33.7,30.33,SSW,195,0.0,4.0,89,0.00,,,0.00,Wunderground v.1.15,2013-01-09 11:50:00,
2013-01-09 07:00:00,36.0,33.1,30.34,SSW,195,0.0,4.0,89,0.00,,,0.00,Wunderground v.1.15,2013-01-09 12:00:00,
2013-01-09 07:05:00,35.7,32.8,30.33,SSW,195,0.0,4.0,89,0.00,,,0.00,Wunderground v.1.15,2013-01-09 12:05:00,
2013-01-09 07:10:00,35.3,32.7,30.33,SSW,195,0.0,4.0,90,0.00,,,0.00,Wunderground v.1.15,2013-01-09 12:10:00,
2013-01-09 07:15:00,35.1,32.7,30.34,SSW,195,0.0,4.0,91,0.00,,,0.00,Wunderground v.1.15,2013-01-09 12:15:00,
2013-01-09 07:20:00,34.9,32.8,30.34,SSW,195,0.0,4.0,92,0.00,,,0.00,Wunderground v.1.15,2013-01-09 12:20:00,
2013-01-09 07:30:00,34.8,32.7,30.34,SSW,195,0.0,4.0,92,0.00,,,0.00,Wunderground v.1.15,2013-01-09 12:30:00,
2013-01-09 07:35:00,34.8,33.0,30.34,SSW,195,0.0,4.0,93,0.00,,,0.00,Wunderground v.1.15,2013-01-09 12:35:00,
2013-01-09 07:40:00,34.9,33.1,30.35,SSW,195,0.0,4.0,93,0.00,,,0.00,Wunderground v.1.15,2013-01-09 12:40:00,
2013-01-09 07:45:00,35.1,33.3,30.35,SSW,195,0.0,4.0,93,0.00,,,0.00,Wunderground v.1.15,2013-01-09 12:45:00,
2013-01-09 07:50:00,35.4,33.6,30.35,SSW,195,0.0,4.0,93,0.00,,,0.00,Wunderground v.1.15,2013-01-09 12:50:00,
2013-01-09 08:00:00,35.9,33.8,30.37,SSW,195,0.0,4.0,92,0.00,,,0.00,Wunderground v.1.15,2013-01-09 13:00:00,
2013-01-09 08:05:00,36.2,34.4,30.36,SSW,195,0.0,4.0,93,0.00,,,0.00,Wunderground v.1.15,2013-01-09 13:05:00,
2013-01-09 08:10:00,36.6,34.5,30.36,SSW,195,0.0,4.0,92,0.00,,,0.00,Wunderground v.1.15,2013-01-09 13:10:00,
2013-01-09 08:20:00,37.3,34.9,30.36,SSW,195,0.0,4.0,91,0.00,,,0.00,Wunderground v.1.15,2013-01-09 13:20:00,
2013-01-09 08:25:00,37.7,35.3,30.36,SSW,195,1.0,4.0,91,0.00,,,0.00,Wunderground v.1.15,2013-01-09 13:25:00,
2013-01-09 08:30:00,38.2,35.5,30.36,SSW,195,1.0,1.0,90,0.00,,,0.00,Wunderground v.1.15,2013-01-09 13:30:00,
2013-01-09 08:35:00,38.6,35.6,30.36,SSW,195,0.0,4.0,89,0.00,,,0.00,Wunderground v.1.15,2013-01-09 13:35:00,
2013-01-09 08:40:00,38.8,35.8,30.35,SSW,195,0.0,4.0,89,0.00,,,0.00,Wunderground v.1.15,2013-01-09 13:40:00,
2013-01-09 08:50:00,39.4,36.1,30.35,SSW,195,0.0,4.0,88,0.00,,,0.00,Wunderground v.1.15,2013-01-09 13:50:00,
2013-01-09 08:55:00,39.7,36.1,30.35,SSW,195,0.0,4.0,87,0.00,,,0.00,Wunderground v.1.15,2013-01-09 13:55:00,
2013-01-09 09:00:00,39.8,36.2,30.34,SSW,195,0.0,4.0,87,0.00,,,0.00,Wunderground v.1.15,2013-01-09 14:00:00,
2013-01-09 09:05:00,40.0,36.4,30.34,SSW,195,0.0,4.0,87,0.00,,,0.00,Wunderground v.1.15,2013-01-09 14:05:00,
2013-01-09 09:15:00,40.4,36.5,30.35,SSW,195,0.0,4.0,86,0.00,,,0.00,Wunderground v.1.15,2013-01-09 14:15:00,
2013-01-09 09:20:00,40.6,36.7,30.34,SSW,195,0.0,4.0,86,0.00,,,0.00,Wunderground v.1.15,2013-01-09 14:20:00,
2013-01-09 09:25:00,40.8,36.9,30.34,SSW,195,0.0,4.0,86,0.00,,,0.00,Wunderground v.1.15,2013-01-09 14:25:00,
2013-01-09 09:30:00,41.0,36.8,30.35,SSW,195,0.0,4.0,85,0.00,,,0.00,Wunderground v.1.15,2013-01-09 14:30:00,
2013-01-09 09:40:00,41.4,37.2,30.35,SSW,195,0.0,4.0,85,0.00,,,0.00,Wunderground v.1.15,2013-01-09 14:40:00,
2013-01-09 09:45:00,41.6,37.1,30.36,SW,217,1.0,4.0,84,0.00,,,0.00,Wunderground v.1.15,2013-01-09 14:45:00,
2013-01-09 09:50:00,41.6,37.1,30.36,SW,217,1.0,4.0,84,0.00,,,0.00,Wunderground v.1.15,2013-01-09 14:50:00,
2013-01-09 09:55:00,41.6,37.1,30.35,SW,217,1.0,4.0,84,0.00,,,0.00,Wunderground v.1.15,2013-01-09 14:55:00,
2013-01-09 10:00:00,41.7,37.2,30.36,SW,217,1.0,4.0,84,0.00,,,0.00,Wunderground v.1.15,2013-01-09 15:00:00,
2013-01-09 10:10:00,41.8,37.0,30.35,SW,214,2.0,2.0,83,0.00,,,0.00,Wunderground v.1.15,2013-01-09 15:10:00,
2013-01-09 10:15:00,41.9,37.4,30.35,SSW,208,2.0,3.0,84,0.00,,,0.00,Wunderground v.1.15,2013-01-09 15:15:00,
2013-01-09 10:20:00,41.9,37.4,30.34,SSW,211,2.0,7.0,84,0.00,,,0.00,Wunderground v.1.15,2013-01-09 15:20:00,
2013-01-09 10:25:00,42.0,37.5,30.34,SSW,211,2.0,7.0,84,0.00,,,0.00,Wunderground v.1.15,2013-01-09 15:25:00,
2013-01-09 10:35:00,42.6,37.8,30.34,SSW,198,3.0,4.0,83,0.00,,,0.00,Wunderground v.1.15,2013-01-09 15:35:00,
2013-01-09 10:40:00,42.7,37.9,30.34,SSW,196,2.0,2.0,83,0.00,,,0.00,Wunderground v.1.15,2013-01-09 15:40:00,
2013-01-09 10:45:00,43.1,38.3,30.34,SSW,198,1.0,4.0,83,0.00,,,0.00,Wunderground v.1.15,2013-01-09 15:45:00,
2013-01-09 10:55:00,43.7,38.6,30.33,SSW,198,1.0,4.0,82,0.00,,,0.00,Wunderground v.1.15,2013-01-09 15:55:00,
2013-01-09 11:00:00,44.0,38.5,30.33,SSW,196,1.0,4.0,81,0.00,,,0.00,Wunderground v.1.15,2013-01-09 16:00:00,
2013-01-09 11:05:00,44.2,38.7,30.33,SSW,196,1.0,4.0,81,0.00,,,0.00,Wunderground v.1.15,2013-01-09 16:05:00,
2013-01-09 11:10:00,44.3,38.8,30.32,SSW,197,1.0,1.0,81,0.00,,,0.00,Wunderground v.1.15,2013-01-09 16:10:00,
2013-01-09 11:20:00,44.5,38.7,30.32,SSW,197,1.0,4.0,80,0.00,,,0.00,Wunderground v.1.15,2013-01-09 16:20:00,
2013-01-09 11:25:00,44.6,39.1,30.32,SSW,198,1.0,4.0,81,0.00,,,0.00,Wunderground v.1.15,2013-01-09 16:25:00,
2013-01-09 11:30:00,44.9,39.1,30.32,SSW,198,0.0,4.0,80,0.00,,,0.00,Wunderground v.1.15,2013-01-09 16:30:00,
2013-01-09 11:35:00,44.9,39.1,30.32,SSW,198,1.0,4.0,80,0.00,,,0.00,Wunderground v.1.15,2013-01-09 16:35:00,
2013-01-09 11:40:00,44.8,39.0,30.32,SSW,196,2.0,2.0,80,0.00,,,0.00,Wunderground v.1.15,2013-01-09 16:40:00,
2013-01-09 11:50:00,45.0,39.2,30.31,SSW,198,1.0,1.0,80,0.00,,,0.00,Wunderground v.1.15,2013-01-09 16:50:00,
2013-01-09 11:55:00,45.3,39.5,30.31,SSW,196,1.0,2.0,80,0.00,,,0.00,Wunderground v.1.15,2013-01-09 16:55:00,
2013-01-09 12:00:00,45.4,39.6,30.30,SSW,198,1.0,1.0,80,0.00,,,0.00,Wunderground v.1.15,2013-01-09 17:00:00,
2013-01-09 12:05:00,45.5,39.7,30.29,SSW,196,1.0,4.0,80,0.00,,,0.00,Wunderground v.1.15,2013-01-09 17:05:00,
2013-01-09 12:10:00,45.8,40.0,30.29,SSW,196,0.0,4.0,80,0.00,,,0.00,Wunderground v.1.15,2013-01-09 17:10:00,
2013-01-09 12:20:00,46.1,39.9,30.29,SSW,196,0.0,4.0,79,0.00,,,0.00,Wunderground v.1.15,2013-01-09 17:20:00,
2013-01-09 12:25:00,46.2,40.0,30.29,SSW,197,0.0,4.0,79,0.00,,,0.00,Wunderground v.1.15,2013-01-09 17:25:00,
2013-01-09 12:30:00,46.4,40.2,30.30,SSW,197,0.0,4.0,79,0.00,,,0.00,Wunderground v.1.15,2013-01-09 17:30:00,
2013-01-09 12:40:00,46.7,40.2,30.29,SSW,198,0.0,4.0,78,0.00,,,0.00,Wunderground v.1.15,2013-01-09 17:40:00,
2013-01-09 12:45:00,46.6,40.1,30.29,SSW,198,0.0,4.0,78,0.00,,,0.00,Wunderground v.1.15,2013-01-09 17:45:00,
2013-01-09 12:50:00,46.7,40.2,30.29,SSW,198,0.0,4.0,78,0.00,,,0.00,Wunderground v.1.15,2013-01-09 17:50:00,
2013-01-09 12:55:00,46.7,40.2,30.29,SSW,198,0.0,4.0,78,0.00,,,0.00,Wunderground v.1.15,2013-01-09 17:55:00,
2013-01-09 13:00:00,46.8,40.3,30.29,SSW,198,0.0,4.0,78,0.00,,,0.00,Wunderground v.1.15,2013-01-09 18:00:00,
2013-01-09 13:10:00,47.0,40.5,30.29,SSW,197,0.0,4.0,78,0.00,,,0.00,Wunderground v.1.15,2013-01-09 18:10:00,
2013-01-09 13:15:00,47.2,40.7,30.29,SSW,198,0.0,4.0,78,0.00,,,0.00,Wunderground v.1.15,2013-01-09 18:15:00,
2013-01-09 13:20:00,47.4,40.9,30.30,SSW,198,0.0,4.0,78,0.00,,,0.00,Wunderground v.1.15,2013-01-09 18:20:00,
2013-01-09 13:25:00,47.5,41.0,30.29,SSW,198,0.0,4.0,78,0.00,,,0.00,Wunderground v.1.15,2013-01-09 18:25:00,
2013-01-09 13:30:00,47.6,40.7,30.28,SSW,196,0.0,4.0,77,0.00,,,0.00,Wunderground v.1.15,2013-01-09 18:30:00,
2013-01-09 13:40:00,47.7,40.8,30.28,SSW,197,0.0,4.0,77,0.00,,,0.00,Wunderground v.1.15,2013-01-09 18:40:00,
2013-01-09 13:45:00,47.9,41.0,30.29,SSW,196,0.0,4.0,77,0.00,,,0.00,Wunderground v.1.15,2013-01-09 18:45:00,
2013-01-09 13:50:00,48.1,41.2,30.29,SSW,197,0.0,4.0,77,0.00,,,0.00,Wunderground v.1.15,2013-01-09 18:50:00,
2013-01-09 13:55:00,48.1,41.2,30.29,SSW,198,0.0,4.0,77,0.00,,,0.00,Wunderground v.1.15,2013-01-09 18:55:00,
2013-01-09 14:00:00,48.2,41.3,30.29,SSW,196,0.0,4.0,77,0.00,,,0.00,Wunderground v.1.15,2013-01-09 19:00:00,
2013-01-09 14:10:00,48.2,41.0,30.28,SSW,196,0.0,4.0,76,0.00,,,0.00,Wunderground v.1.15,2013-01-09 19:10:00,
2013-01-09 14:15:00,48.3,41.1,30.29,SSW,198,0.0,4.0,76,0.00,,,0.00,Wunderground v.1.15,2013-01-09 19:15:00,
2013-01-09 14:20:00,48.4,41.2,30.29,SSW,197,0.0,4.0,76,0.00,,,0.00,Wunderground v.1.15,2013-01-09 19:20:00,
2013-01-09 14:25:00,48.3,41.1,30.29,SSW,198,0.0,4.0,76,0.00,,,0.00,Wunderground v.1.15,2013-01-09 19:25:00,
2013-01-09 14:35:00,48.1,41.6,30.29,SSW,198,0.0,4.0,78,0.00,,,0.00,Wunderground v.1.15,2013-01-09 19:35:00,
2013-01-09 14:40:00,48.1,42.9,30.29,SSW,197,0.0,4.0,82,0.00,,,0.00,Wunderground v.1.15,2013-01-09 19:40:00,
2013-01-09 14:50:00,48.1,42.9,30.27,SSW,198,0.0,4.0,82,0.00,,,0.00,Wunderground v.1.15,2013-01-09 19:50:00,
2013-01-09 14:55:00,48.0,43.1,30.26,SSW,198,0.0,4.0,83,0.00,,,0.00,Wunderground v.1.15,2013-01-09 19:55:00,
2013-01-09 15:00:00,47.8,43.5,30.25,SSW,198,0.0,4.0,85,0.00,,,0.00,Wunderground v.1.15,2013-01-09 20:00:00,
2013-01-09 15:05:00,47.6,43.6,30.25,SSW,196,0.0,4.0,86,0.00,,,0.00,Wunderground v.1.15,2013-01-09 20:05:00,
2013-01-09 15:10:00,47.4,43.4,30.24,SSW,197,0.0,4.0,86,0.00,,,0.00,Wunderground v.1.15,2013-01-09 20:10:00,
2013-01-09 15:20:00,47.1,42.8,30.25,SSW,198,0.0,4.0,85,0.00,,,0.01,Wunderground v.1.15,2013-01-09 20:20:00,
2013-01-09 15:25:00,47.0,42.4,30.23,SSW,197,0.0,4.0,84,0.00,,,0.01,Wunderground v.1.15,2013-01-09 20:25:00,
2013-01-09 15:30:00,46.9,42.6,30.23,SSW,197,0.0,4.0,85,0.00,,,0.01,Wunderground v.1.15,2013-01-09 20:30:00,
2013-01-09 15:35:00,47.0,42.7,30.24,SSW,197,0.0,4.0,85,0.00,,,0.01,Wunderground v.1.15,2013-01-09 20:35:00,
2013-01-09 15:40:00,47.0,42.4,30.23,SSW,196,0.0,4.0,84,0.00,,,0.01,Wunderground v.1.15,2013-01-09 20:40:00,
2013-01-09 15:50:00,47.2,42.6,30.24,SSW,197,0.0,4.0,84,0.00,,,0.01,Wunderground v.1.15,2013-01-09 20:50:00,
2013-01-09 15:55:00,47.3,43.0,30.24,SSW,197,0.0,4.0,85,0.00,,,0.01,Wunderground v.1.15,2013-01-09 20:55:00,
2013-01-09 16:00:00,47.3,42.7,30.24,SSW,198,0.0,4.0,84,0.00,,,0.01,Wunderground v.1.15,2013-01-09 21:00:00,
2013-01-09 16:10:00,47.4,43.1,30.23,SSW,197,0.0,4.0,85,0.00,,,0.01,Wunderground v.1.15,2013-01-09 21:10:00,
2013-01-09 16:15:00,47.6,43.0,30.23,SSW,197,0.0,4.0,84,0.00,,,0.01,Wunderground v.1.15,2013-01-09 21:15:00,
2013-01-09 16:20:00,47.8,43.2,30.23,SSW,197,1.0,4.0,84,0.00,,,0.01,Wunderground v.1.15,2013-01-09 21:20:00,
2013-01-09 16:25:00,47.9,43.3,30.23,SSW,197,1.0,4.0,84,0.00,,,0.01,Wunderground v.1.15,2013-01-09 21:25:00,
2013-01-09 16:30:00,47.9,43.0,30.23,SSW,197,1.0,4.0,83,0.00,,,0.01,Wunderground v.1.15,2013-01-09 21:30:00,
2013-01-09 16:40:00,47.9,43.0,30.22,SSW,196,0.0,4.0,83,0.00,,,0.01,Wunderground v.1.15,2013-01-09 21:40:00,
2013-01-09 16:45:00,47.9,43.0,30.22,SSW,197,1.0,4.0,83,0.00,,,0.01,Wunderground v.1.15,2013-01-09 21:45:00,
2013-01-09 16:50:00,47.9,43.0,30.22,SSW,197,2.0,4.0,83,0.00,,,0.01,Wunderground v.1.15,2013-01-09 21:50:00,
2013-01-09 16:55:00,47.9,43.3,30.23,SSW,197,1.0,4.0,84,0.00,,,0.01,Wunderground v.1.15,2013-01-09 21:55:00,
2013-01-09 17:00:00,47.8,43.2,30.22,SSW,197,1.0,4.0,84,0.00,,,0.01,Wunderground v.1.15,2013-01-09 22:00:00,
2013-01-09 17:10:00,47.8,43.2,30.23,SSW,198,1.0,4.0,84,0.00,,,0.01,Wunderground v.1.15,2013-01-09 22:10:00,
2013-01-09 17:15:00,47.8,43.2,30.23,SSW,197,1.0,4.0,84,0.00,,,0.01,Wunderground v.1.15,2013-01-09 22:15:00,
2013-01-09 17:20:00,48.1,43.5,30.23,SSW,196,1.0,1.0,84,0.00,,,0.01,Wunderground v.1.15,2013-01-09 22:20:00,
2013-01-09 17:25:00,48.1,43.5,30.23,SSW,197,1.0,4.0,84,0.00,,,0.01,Wunderground v.1.15,2013-01-09 22:25:00,
2013-01-09 17:30:00,48.2,43.6,30.23,SSW,196,0.0,4.0,84,0.00,,,0.01,Wunderground v.1.15,2013-01-09 22:30:00,
2013-01-09 17:40:00,48.3,43.7,30.22,SSW,197,1.0,1.0,84,0.00,,,0.01,Wunderground v.1.15,2013-01-09 22:40:00,
2013-01-09 17:45:00,48.3,43.7,30.23,SSW,197,1.0,4.0,84,0.00,,,0.01,Wunderground v.1.15,2013-01-09 22:45:00,
2013-01-09 17:50:00,48.3,43.7,30.23,SSW,198,1.0,1.0,84,0.00,,,0.01,Wunderground v.1.15,2013-01-09 22:50:00,
2013-01-09 18:00:00,48.1,43.5,30.23,SSW,196,0.0,4.0,84,0.00,,,0.01,Wunderground v.1.15,2013-01-09 23:00:00,
2013-01-09 18:05:00,47.9,43.3,30.23,SSW,198,0.0,4.0,84,0.00,,,0.01,Wunderground v.1.15,2013-01-09 23:05:00,
2013-01-09 18:10:00,47.7,43.4,30.22,SSW,197,0.0,4.0,85,0.00,,,0.01,Wunderground v.1.15,2013-01-09 23:10:00,
2013-01-09 18:15:00,47.7,43.4,30.23,SSW,196,0.0,4.0,85,0.00,,,0.01,Wunderground v.1.15,2013-01-09 23:15:00,
2013-01-09 18:20:00,47.6,43.6,30.23,SSW,197,0.0,4.0,86,0.00,,,0.01,Wunderground v.1.15,2013-01-09 23:20:00,
2013-01-09 18:30:00,48.0,44.0,30.24,SSW,196,0.0,4.0,86,0.00,,,0.01,Wunderground v.1.15,2013-01-09 23:30:00,
2013-01-09 18:35:00,48.1,44.1,30.25,SSW,197,0.0,4.0,86,0.00,,,0.01,Wunderground v.1.15,2013-01-09 23:35:00,
2013-01-09 18:40:00,48.3,44.3,30.25,SSW,196,0.0,4.0,86,0.00,,,0.01,Wunderground v.1.15,2013-01-09 23:40:00,
2013-01-09 18:45:00,48.5,44.5,30.25,SSW,197,1.0,4.0,86,0.00,,,0.01,Wunderground v.1.15,2013-01-09 23:45:00,
2013-01-09 18:55:00,49.0,45.0,30.26,SSW,198,1.0,4.0,86,0.00,,,0.01,Wunderground v.1.15,2013-01-09 23:55:00,
2013-01-09 19:00:00,49.3,45.3,30.26,NW,309,1.0,4.0,86,0.00,,,0.01,Wunderground v.1.15,2013-01-10 00:00:00,
2013-01-09 19:05:00,49.2,44.6,30.27,North,355,1.0,4.0,84,0.00,,,0.01,Wunderground v.1.15,2013-01-10 00:05:00,
2013-01-09 19:10:00,47.6,43.0,30.28,North,355,2.0,2.0,84,0.00,,,0.01,Wunderground v.1.15,2013-01-10 00:10:00,
2013-01-09 19:15:00,46.2,42.2,30.28,NW,310,3.0,3.0,86,0.00,,,0.01,Wunderground v.1.15,2013-01-10 00:15:00,
2013-01-09 19:25:00,45.1,41.8,30.29,North,355,3.0,4.0,88,0.00,,,0.01,Wunderground v.1.15,2013-01-10 00:25:00,
2013-01-09 19:30:00,45.0,42.0,30.30,NW,315,4.0,4.0,89,0.00,,,0.01,Wunderground v.1.15,2013-01-10 00:30:00,
2013-01-09 19:35:00,45.0,42.0,30.30,North,350,3.0,4.0,89,0.00,,,0.01,Wunderground v.1.15,2013-01-10 00:35:00,
2013-01-09 19:40:00,44.9,41.9,30.30,NNW,344,2.0,4.0,89,0.00,,,0.01,Wunderground v.1.15,2013-01-10 00:40:00,
2013-01-09 19:50:00,45.4,42.1,30.30,NW,308,3.0,4.0,88,0.00,,,0.01,Wunderground v.1.15,2013-01-10 00:50:00,
2013-01-09 19:55:00,46.0,42.6,30.30,North,355,2.0,4.0,88,0.00,,,0.01,Wunderground v.1.15,2013-01-10 00:55:00,
2013-01-09 20:00:00,46.5,42.8,30.30,NNW,327,1.0,1.0,87,0.00,,,0.01,Wunderground v.1.15,2013-01-10 01:00:00,
2013-01-09 20:05:00,47.8,43.8,30.30,NNW,330,2.0,4.0,86,0.00,,,0.01,Wunderground v.1.15,2013-01-10 01:05:00,
2013-01-09 20:10:00,49.1,44.2,30.30,North,355,2.0,4.0,83,0.00,,,0.01,Wunderground v.1.15,2013-01-10 01:10:00,
2013-01-09 20:20:00,50.0,44.4,30.30,NNW,337,2.0,4.0,81,0.00,,,0.01,Wunderground v.1.15,2013-01-10 01:20:00,
2013-01-09 20:25:00,50.0,44.4,30.30,North,5,1.0,5.0,81,0.00,,,0.01,Wunderground v.1.15,2013-01-10 01:25:00,
2013-01-09 20:30:00,49.9,44.3,30.30,NNE,13,1.0,4.0,81,0.00,,,0.01,Wunderground v.1.15,2013-01-10 01:30:00,
2013-01-09 20:35:00,49.8,44.2,30.30,WNW,302,2.0,4.0,81,0.00,,,0.01,Wunderground v.1.15,2013-01-10 01:35:00,
2013-01-09 20:40:00,49.9,44.3,30.30,NNW,329,2.0,2.0,81,0.00,,,0.01,Wunderground v.1.15,2013-01-10 01:40:00,
2013-01-09 20:50:00,50.5,44.2,30.30,NNW,335,4.0,4.0,79,0.00,,,0.01,Wunderground v.1.15,2013-01-10 01:50:00,
2013-01-09 20:55:00,50.6,44.3,30.31,NW,321,4.0,4.0,79,0.00,,,0.01,Wunderground v.1.15,2013-01-10 01:55:00,
2013-01-09 21:00:00,50.6,44.3,30.31,NW,311,2.0,4.0,79,0.00,,,0.01,Wunderground v.1.15,2013-01-10 02:00:00,
2013-01-09 21:05:00,50.7,44.1,30.31,NW,312,2.0,4.0,78,0.00,,,0.01,Wunderground v.1.15,2013-01-10 02:05:00,
2013-01-09 21:15:00,49.8,43.5,30.32,NNW,342,2.0,4.0,79,0.00,,,0.01,Wunderground v.1.15,2013-01-10 02:15:00,
2013-01-09 21:20:00,49.2,43.3,30.32,NNW,343,1.0,1.0,80,0.00,,,0.01,Wunderground v.1.15,2013-01-10 02:20:00,
2013-01-09 21:25:00,48.6,43.0,30.33,NNW,342,0.0,4.0,81,0.00,,,0.01,Wunderground v.1.15,2013-01-10 02:25:00,
2013-01-09 21:30:00,48.1,42.9,30.32,NNW,344,1.0,5.0,82,0.00,,,0.01,Wunderground v.1.15,2013-01-10 02:30:00,
2013-01-09 21:35:00,47.9,42.7,30.32,NNW,331,1.0,5.0,82,0.00,,,0.01,Wunderground v.1.15,2013-01-10 02:35:00,
2013-01-09 21:45:00,47.9,42.3,30.33,NW,306,1.0,3.0,81,0.00,,,0.01,Wunderground v.1.15,2013-01-10 02:45:00,
2013-01-09 21:50:00,48.6,42.0,30.33,WNW,288,2.0,5.0,78,0.00,,,0.01,Wunderground v.1.15,2013-01-10 02:50:00,
2013-01-09 21:55:00,49.6,42.0,30.33,NW,317,4.0,5.0,75,0.00,,,0.01,Wunderground v.1.15,2013-01-10 02:55:00,
2013-01-09 22:00:00,50.2,42.2,30.33,North,360,4.0,5.0,74,0.00,,,0.01,Wunderground v.1.15,2013-01-10 03:00:00,
2013-01-09 22:10:00,50.6,41.5,30.34,WSW,255,4.0,7.0,71,0.00,,,0.01,Wunderground v.1.15,2013-01-10 03:10:00,
2013-01-09 22:15:00,50.9,41.1,30.34,WNW,300,4.0,7.0,69,0.00,,,0.01,Wunderground v.1.15,2013-01-10 03:15:00,
2013-01-09 22:20:00,51.3,41.1,30.34,WNW,300,4.0,4.0,68,0.00,,,0.01,Wunderground v.1.15,2013-01-10 03:20:00,
2013-01-09 22:25:00,51.4,41.2,30.34,WNW,290,3.0,4.0,68,0.00,,,0.01,Wunderground v.1.15,2013-01-10 03:25:00,
2013-01-09 22:30:00,51.5,41.3,30.34,NNW,341,3.0,3.0,68,0.00,,,0.01,Wunderground v.1.15,2013-01-10 03:30:00,
2013-01-09 22:40:00,51.2,41.0,30.34,NNW,346,3.0,5.0,68,0.00,,,0.01,Wunderground v.1.15,2013-01-10 03:40:00,
2013-01-09 22:45:00,51.1,41.3,30.35,West,275,3.0,5.0,69,0.00,,,0.01,Wunderground v.1.15,2013-01-10 03:45:00,
2013-01-09 22:50:00,50.9,40.7,30.35,NNW,339,2.0,4.0,68,0.00,,,0.01,Wunderground v.1.15,2013-01-10 03:50:00,
2013-01-09 22:55:00,50.8,40.6,30.35,West,275,2.0,4.0,68,0.00,,,0.01,Wunderground v.1.15,2013-01-10 03:55:00,
2013-01-09 23:00:00,50.8,40.2,30.35,West,277,1.0,1.0,67,0.00,,,0.01,Wunderground v.1.15,2013-01-10 04:00:00,
2013-01-09 23:10:00,51.1,38.9,30.36,West,272,2.0,4.0,63,0.00,,,0.01,Wunderground v.1.15,2013-01-10 04:10:00,
2013-01-09 23:15:00,51.2,38.2,30.36,West,280,2.0,4.0,61,0.00,,,0.01,Wunderground v.1.15,2013-01-10 04:15:00,
2013-01-09 23:20:00,51.7,36.9,30.36,WNW,292,3.0,6.0,57,0.00,,,0.01,Wunderground v.1.15,2013-01-10 04:20:00,
2013-01-09 23:25:00,52.0,36.3,30.36,West,261,3.0,6.0,55,0.00,,,0.01,Wunderground v.1.15,2013-01-10 04:25:00,
2013-01-09 23:35:00,52.0,35.9,30.37,WNW,294,2.0,5.0,54,0.00,,,0.01,Wunderground v.1.15,2013-01-10 04:35:00,
2013-01-09 23:40:00,52.1,35.5,30.37,West,277,3.0,6.0,53,0.00,,,0.01,Wunderground v.1.15,2013-01-10 04:40:00,
2013-01-09 23:45:00,52.3,35.2,30.37,NW,307,5.0,10.0,52,0.00,,,0.01,Wunderground v.1.15,2013-01-10 04:45:00,
2013-01-09 23:50:00,52.7,34.6,30.37,NNW,337,8.0,8.0,50,0.00,,,0.01,Wunderground v.1.15,2013-01-10 04:50:00,